Flag for India Weather past 2 weeks in Jaipur, Rajasthan, India

Now
77 °F

Fog.


Feels Like: 78 °F
Forecast: 80 / 96 °F
Wind: No wind

Location: Jaipur / Sanganer

Current Time: Aug 30, 2014 at 10:25:05 PM

Latest Report: Aug 30, 2014 at 9:00 PM


Visibility: 2 mi

Pressure: 29.65 "Hg

Humidity: 89%

Dew point: 73 °F

Location of JaipurLocation

Historic Weather in Jaipur — Graph

°F

Jaipur temperature yesterday

Maximum temperature yesterday: 95 °F (at 4:00 PM)
Minimum temperature yesterday: 81 °F (at 5:00 AM)
Average temperature yesterday: 88 °F

Past Weeks' High & Low Weather Summary

 TemperatureHumidityPressure
High100 °F (Aug 25, 3:00 PM)94% (Aug 16, 8:00 AM)30.01 "Hg (Aug 16, 8:00 AM)
Low75 °F (Aug 30, 1:00 PM)27% (Aug 25, 4:00 PM)29.59 "Hg (Aug 27, 5:00 PM)
Average87 °F60%29.73 "Hg
* Reported Aug 15 9:00 PM — Aug 30 9:00 PM, Jaipur, Weather by CustomWeather, © 2014

Note: Actual official high and low records may vary slightly from our data, if they occured in-between our weather recording intervals... More about our weather records

Advertising

Jaipur weather history for previous 24 hours

 ConditionsComfort  
Time TempWeatherWind HumidityBarometerVisibility
9:00 PM
Aug 30
77 °FFog.No wind89%29.65 "Hg2 mi
8:00 PM79 °FPartly cloudy.No wind89%29.62 "Hg2 mi
7:00 PM79 °FBroken clouds.1 mph84%29.62 "Hg2 mi
6:00 PM79 °FBroken clouds.1 mph84%29.62 "Hg2 mi
5:00 PM79 °FBroken clouds.5 mph84%29.62 "Hg2 mi
3:00 PM77 °FDrizzle. Broken clouds.8 mph89%29.65 "Hg1 mi
2:00 PM75 °FRain. More clouds than sun.8 mph94%29.71 "Hg1 mi
1:00 PM75 °FRain. More clouds than sun.8 mph94%29.71 "Hg1 mi
12:00 PM77 °FRain. More clouds than sun.6 mph94%29.74 "Hg1 mi
11:00 AM77 °FRain. Broken clouds.10 mph94%29.74 "Hg1 mi
10:00 AM81 °FLight rain. Broken clouds.7 mph84%29.74 "Hg2 mi
9:00 AM88 °FScattered clouds.8 mph66%29.74 "Hg2 mi
8:00 AM84 °FScattered clouds.6 mph74%29.71 "Hg2 mi
6:00 AM82 °FPassing clouds.No wind74%29.71 "Hg2 mi
5:00 AM82 °FPassing clouds.No wind79%29.71 "Hg2 mi
4:00 AM82 °FPassing clouds.2 mph79%29.71 "Hg2 mi
3:00 AM82 °FPassing clouds.2 mph79%29.71 "Hg2 mi
2:00 AM82 °FPassing clouds.5 mph79%29.71 "Hg2 mi
12:00 AM84 °FPartly cloudy.5 mph74%29.71 "Hg2 mi
11:00 PM
Aug 29
86 °FPartly cloudy.3 mph70%29.71 "Hg2 mi
10:00 PM86 °FPartly cloudy.7 mph70%29.71 "Hg2 mi
Weather by CustomWeather, © 2014

See weather overviewHow to use our weather pages